[[{"header":{"parameterUnit":"m.s-1","parameterCategory":1,"la1":30.2991,"la2":30.254,"lo1":-89.0895,"lo2":-89.0444,"dy":0.0017,"dx":0.0017,"nx":28,"ny":28,"refTime":"2025-03-31T21:00:00:Z","depth":0,"parameterNumber":2,"parameterNumberName":"U-component_of_WINDS"},"data":[0,0,0,0,0,0,0,0,0,0,0,0,0,0,0,0,0,0,0,0,0,0,0,0,0,0,0,0,0,0,0,0,0,0,0,0,0,0,0,0,0,0,0,0,0,0,0,0,0,0,0,0,0,0,0,0,0,0,-4.8592,-4.8594,0,-4.8772,-4.8774,-4.8776,-4.8799,-4.8797,-4.8796,-4.8794,-4.898,-4.8987,-4.8993,0,0,0,0,0,0,0,0,0,0,0,0,0,-4.8271,-4.8277,-4.8592,-4.8594,-4.8597,-4.8772,-4.8774,-4.8777,-4.8799,-4.8797,-4.8795,-4.8793,-4.8978,-4.8986,-4.8994,0,0,0,0,0,0,0,0,0,0,0,0,0,-4.8427,-4.8279,-4.8592,-4.8629,-4.8634,-4.8771,-4.8774,-4.8778,-4.88,-4.8797,-4.8795,-4.8792,-4.8976,-4.8985,-4.8995,-4.9108,0,0,-4.9025,-4.9029,0,0,0,0,0,0,0,0,-4.8418,-4.8438,-4.8621,-4.8627,-4.8633,-4.876,-4.873,-4.8889,-4.88,-4.8737,-4.8794,-4.8791,-4.891,-4.8925,-4.8964,-4.9117,-4.9125,-4.9026,-4.9032,-4.9036,-4.9039,0,0,0,0,0,0,0,-4.8407,-4.8431,-4.8663,-4.8624,-4.8631,-4.8638,-4.8657,-4.876,-4.8836,-4.8742,-4.8744,-4.8765,-4.8912,-4.8955,-4.8969,-4.9128,-4.9026,-4.9035,-4.9041,-4.9045,-4.9383,-4.9386,0,0,0,0,0,0,-4.8389,-4.8422,-4.8658,-4.8669,-4.8517,-4.8646,-4.8667,-4.8722,-4.8835,-4.8849,-4.8767,-4.8766,-4.8939,-4.8957,-4.8975,-4.9114,-4.9036,-4.9046,-4.9051,-4.938,-4.9383,-4.9387,0,0,0,0,0,0,-4.8382,-4.841,-4.8651,-4.8546,-4.8577,-4.8654,-4.8716,-4.8727,-4.8769,-4.8854,-4.8867,-4.8796,-4.8938,-4.8961,-4.9075,-4.9121,-4.905,-4.9059,-4.9376,-4.9381,-4.9385,-4.9393,0,0,0,0,0,0,-4.8373,-4.8407,-4.845,-4.8547,-4.8583,-4.8746,-4.8718,-4.8732,-4.8786,-4.8786,-4.8885,-4.8899,-4.8937,-4.906,-4.9085,-4.9133,-4.9067,-4.9372,-4.9378,-4.9384,-4.9389,-4.9398,-4.9405,0,0,0,0,0,-4.8361,-4.8446,-4.8452,-4.848,-4.8638,-4.8749,-4.8769,-4.8811,-4.879,-4.8834,-4.8888,-4.8895,-4.9113,-4.9071,-4.9099,-4.9152,-4.9369,-4.9376,-4.9383,-4.9386,-4.9396,-4.9405,0,0,0,0,0,0,-4.8353,-4.8459,-4.8467,-4.8586,-4.8658,-4.8752,-4.8809,-4.8821,-4.8901,-4.8898,-4.8948,-4.897,-4.9081,-4.9129,-4.908,-4.9268,-4.9239,-4.9252,-4.9232,-4.9242,-4.925,-4.9235,-4.9075,0,0,0,0,0,-4.8365,-4.8445,-4.8534,-4.863,-4.8666,-4.8731,-4.8781,-4.8808,-4.8885,-4.8916,-4.8978,-4.9053,-4.9139,-4.9194,-4.9277,-4.9398,-4.9419,-4.9448,-4.9456,-4.9462,-4.9471,-4.9538,-4.9551,-4.9409,-4.9409,-4.9409,0,0,-4.8391,-4.8459,-4.8506,-4.863,-4.8689,-4.8772,-4.8757,-4.8845,-4.8907,-4.8929,-4.9039,-4.9088,-4.9176,-4.9293,-4.9348,-4.9336,-4.9516,-4.947,-4.9474,-4.9481,-4.9546,-4.9559,-4.9571,-4.9414,-4.9413,-4.9412,0,0,-4.8478,-4.8539,-4.8624,-4.8684,-4.8774,-4.8817,-4.8837,-4.8931,-4.8963,-4.9075,-4.9094,-4.9169,-4.9315,-4.9376,-4.9426,-4.9539,-4.9549,-4.9566,-4.9605,-4.967,-4.9681,-4.9691,-4.9729,-4.9743,-4.9576,-4.9576,-4.9576,0,-4.8499,-4.8623,-4.8667,-4.8754,-4.8808,-4.8833,-4.8921,-4.8977,-4.9089,-4.9126,-4.9112,-4.9295,-4.9356,-4.9487,-4.9515,-4.9556,-4.9581,-4.9553,-4.9675,-4.9686,-4.9696,-4.9734,-4.9748,-4.9577,-4.9577,-4.9577,-4.9577,0,-4.8642,-4.8729,-4.8788,-4.8894,-4.8956,-4.9043,-4.9101,-4.9158,-4.918,-4.9225,-4.9339,-4.9413,-4.9511,-4.9545,-4.9568,-4.968,-4.967,-4.9665,-4.9637,-4.971,-4.9746,-4.9761,-4.9579,-4.9578,-4.9578,-4.9578,0,0,-4.8727,-4.8859,-4.8879,-4.8928,-4.9029,-4.9097,-4.9186,-4.9282,-4.9329,-4.9407,-4.9482,-4.9606,-4.9602,-4.9659,-4.969,-4.9747,-4.983,-4.9735,-4.9738,-4.9748,-4.9957,-4.9957,-4.9973,-4.9838,-4.9841,-4.9843,-4.9949,0,-4.8825,-4.8982,-4.9025,-4.9159,-4.9238,-4.9264,-4.9342,-4.9413,-4.9458,-4.9533,-4.9584,-4.967,-4.966,-4.9694,-4.9752,-4.9807,-4.9872,-4.9801,-4.9908,-4.9911,-4.9882,-4.9992,-4.9993,-5.0089,-4.9963,-4.9966,-4.9967,0,-4.8959,-4.9038,-4.9179,-4.927,-4.9305,-4.9374,-4.9465,-4.9537,-4.9618,-4.9647,-4.9712,-4.9737,-4.9832,-4.9801,-4.9932,-4.9883,-4.993,-4.9964,-4.9969,-4.9978,-4.9941,-5.0002,-5.0121,-5.0134,-4.999,-4.9988,-4.9987,0,-4.9004,-4.9146,-4.9248,-4.929,-4.9399,-4.9447,-4.9495,-4.9574,-4.9629,-4.971,-4.9745,-4.9837,-4.9886,-4.9956,-5.0006,-4.998,-5.0133,-5.0106,-5.0159,-5.0157,-5.0187,-5.0184,-5.0312,-5.0222,-5.0222,-5.0222,-5.0221,0,-4.9106,-4.9191,-4.927,-4.9332,-4.9428,-4.9479,-4.9573,-4.9622,-4.9693,-4.9766,-4.9796,-4.9864,-4.9927,-5.0004,-5.0045,-5.0146,-5.0169,-5.0195,-5.0204,-5.0191,-5.0187,-5.022,-5.0213,-5.0225,-5.0225,-5.0224,-5.0223,0,-4.9171,-4.9227,-4.934,-4.9435,-4.9461,-4.9527,-4.9609,-4.9671,-4.9718,-4.9811,-4.9836,-4.991,-5.0002,-5.006,-5.0178,-5.0205,-5.0316,-5.0324,-5.0287,-5.0291,-5.0339,-5.0333,-5.049,-5.0513,-5.041,-5.0411,-5.0412,0,-4.9231,-4.9296,-4.9398,-4.9449,-4.9497,-4.9579,-4.9635,-4.9688,-4.9745,-4.9844,-4.9895,-4.9989,-5.0067,-5.0214,-5.0279,-5.0369,-5.0378,-5.0428,-5.0392,-5.0376,-5.0376,-5.037,-5.0377,-5.0432,-5.0433,-5.0434,-5.0434,0,-4.9331,-4.9356,-4.9435,-4.9524,-4.9589,-4.9663,-4.9735,-4.9776,-4.9842,-4.9905,-4.9999,-5.006,-5.018,-5.0273,-5.037,-5.042,-5.0438,-5.0446,-5.0462,-5.0447,-5.0422,-5.0434,-5.03,-5.0441,-5.044,-5.044,-5.0439,-5.0439,-4.9394,-4.9453,-4.9533,-4.9621,-4.9681,-4.9749,-4.9811,-4.9867,-4.9946,-5.0047,-5.0075,-5.0173,-5.0255,-5.0386,-5.0439,-5.0518,-5.0511,-5.0535,-5.0541,-5.0545,-5.0545,-5.0412,-5.0536,-5.0536,-5.0536,-5.0536,-5.0536,0,-4.9493,-4.9547,-4.9626,-4.9727,-4.9796,-4.9807,-4.9889,-4.9946,-5.0031,-5.0106,-5.0182,-5.0291,-5.0382,-5.0454,-5.0548,-5.0597,-5.0607,-5.0619,-5.0615,-5.0626,-5.0547,-5.0522,-5.0609,-5.0609,-5.0609,-5.0609,-5.0609,-5.0609,-4.9553,-4.9653,-4.9688,-4.9818,-4.9872,-4.9968,-5.0013,-5.0076,-5.0135,-5.0255,-5.033,-5.0377,-5.0451,-5.055,-5.0635,-5.0654,-5.0686,-5.0696,-5.0716,-5.064,-5.0632,-5.0624,-5.0601,-5.0703,-5.0703,-5.0789,-5.079,-5.079]},{"header":{"parameterUnit":"m.s-1","parameterCategory":1,"la1":30.2991,"la2":30.254,"lo1":-89.0895,"lo2":-89.0444,"dy":0.0017,"dx":0.0017,"nx":28,"ny":28,"refTime":"2025-03-31T21:00:00:Z","depth":0,"parameterNumber":3,"parameterNumberName":"V-component_of_WINDS"},"data":[0,0,0,0,0,0,0,0,0,0,0,0,0,0,0,0,0,0,0,0,0,0,0,0,0,0,0,0,0,0,0,0,0,0,0,0,0,0,0,0,0,0,0,0,0,0,0,0,0,0,0,0,0,0,0,0,0,0,4.6563,4.6563,0,4.6646,4.6647,4.6648,4.663,4.6629,4.6627,4.6626,4.6713,4.6717,4.6721,0,0,0,0,0,0,0,0,0,0,0,0,0,4.639,4.6394,4.6562,4.6563,4.6565,4.6646,4.6647,4.6649,4.6631,4.6629,4.6627,4.6625,4.6712,4.6716,4.6721,0,0,0,0,0,0,0,0,0,0,0,0,0,4.6469,4.6395,4.6562,4.6565,4.6567,4.6646,4.6647,4.6649,4.6631,4.6629,4.6626,4.6624,4.6711,4.6716,4.6722,4.6804,0,0,4.6739,4.6741,0,0,0,0,0,0,0,0,4.6464,4.6475,4.6564,4.6565,4.6567,4.6625,4.6619,4.6701,4.6632,4.6607,4.6626,4.6623,4.6686,4.6694,4.6715,4.6808,4.6811,4.6739,4.6743,4.6745,4.6747,0,0,0,0,0,0,0,4.6459,4.6471,4.6596,4.6565,4.6567,4.6564,4.6572,4.6634,4.6659,4.6609,4.6608,4.6618,4.6686,4.6709,4.6716,4.6813,4.6739,4.6744,4.6748,4.675,4.6981,4.6984,0,0,0,0,0,0,4.6452,4.6467,4.6593,4.6598,4.6509,4.6569,4.6578,4.6609,4.6658,4.6663,4.662,4.6616,4.6701,4.671,4.6719,4.6821,4.6745,4.6751,4.6754,4.6978,4.6982,4.6984,0,0,0,0,0,0,4.6448,4.6463,4.659,4.6532,4.6548,4.6574,4.6609,4.6612,4.6635,4.6666,4.667,4.6638,4.6699,4.6711,4.6783,4.6824,4.6753,4.6758,4.6975,4.6979,4.6983,4.7023,0,0,0,0,0,0,4.6443,4.6462,4.6492,4.6533,4.6551,4.6651,4.6611,4.6615,4.6644,4.6641,4.6685,4.669,4.6698,4.6775,4.6789,4.683,4.6763,4.6972,4.6977,4.6982,4.7018,4.7028,4.7036,0,0,0,0,0,4.6437,4.65,4.6494,4.6509,4.659,4.6653,4.6664,4.6672,4.6647,4.6679,4.67,4.6688,4.6817,4.6783,4.6798,4.6841,4.6969,4.6975,4.6981,4.7014,4.7026,4.7036,0,0,0,0,0,0,4.6463,4.6505,4.6499,4.6577,4.6612,4.665,4.669,4.6684,4.6727,4.6722,4.6731,4.6741,4.6815,4.6835,4.6797,4.6925,4.689,4.6899,4.6909,4.6921,4.6929,4.6923,4.6768,0,0,0,0,0,4.6478,4.6525,4.656,4.6625,4.6643,4.6664,4.6692,4.6695,4.6732,4.6747,4.6773,4.681,4.6859,4.6891,4.6937,4.7021,4.7032,4.7059,4.7068,4.7075,4.7083,4.7132,4.7145,4.7005,4.7005,4.7004,0,0,4.6509,4.6538,4.6567,4.6631,4.6659,4.6709,4.6676,4.673,4.6768,4.6755,4.6825,4.6846,4.6888,4.6967,4.7003,4.6986,4.7125,4.7083,4.7088,4.7093,4.714,4.7153,4.7165,4.7009,4.7008,4.7007,0,0,4.6591,4.6617,4.6675,4.6704,4.6746,4.676,4.6774,4.6815,4.6828,4.6898,4.689,4.6936,4.702,4.7051,4.7077,4.7175,4.7167,4.719,4.7237,4.7284,4.7295,4.7305,4.7342,4.7355,4.7198,4.7198,4.7198,0,4.6624,4.6699,4.6706,4.6762,4.6791,4.6782,4.6843,4.687,4.6926,4.6947,4.6927,4.7034,4.7061,4.7149,4.7173,4.7194,4.7212,4.7185,4.7293,4.7303,4.7312,4.7348,4.7361,4.7201,4.72,4.72,4.72,0,4.6739,4.6791,4.6833,4.6888,4.6922,4.698,4.6997,4.7031,4.7033,4.7049,4.7123,4.7155,4.721,4.7231,4.7232,4.7319,4.7308,4.7291,4.7255,4.7328,4.7362,4.7375,4.7204,4.7203,4.7203,4.7202,0,0,4.6839,4.6898,4.6914,4.694,4.6987,4.7028,4.7086,4.7139,4.717,4.7209,4.7259,4.7332,4.7317,4.7347,4.7352,4.7394,4.7472,4.7372,4.7373,4.7391,4.7573,4.7587,4.7602,4.7466,4.7469,4.7471,4.757,0,4.6927,4.7029,4.7039,4.7131,4.7181,4.7174,4.7226,4.7261,4.7279,4.7325,4.7344,4.7396,4.7371,4.739,4.7431,4.7453,4.7509,4.7446,4.7515,4.7518,4.7506,4.7619,4.7633,4.7725,4.7583,4.7585,4.7587,0,4.7043,4.7087,4.7184,4.7227,4.7248,4.7294,4.7345,4.7388,4.7429,4.7439,4.7475,4.7475,4.7537,4.7499,4.7587,4.7544,4.7573,4.7589,4.7593,4.76,4.7557,4.7631,4.7754,4.7769,4.7607,4.7605,4.7604,0,4.7109,4.7192,4.7262,4.7284,4.7334,4.7367,4.739,4.7429,4.7461,4.7506,4.7528,4.7579,4.7608,4.7649,4.7664,4.7634,4.7751,4.7714,4.7763,4.7763,4.7788,4.7787,4.7919,4.7805,4.7805,4.7804,4.7804,0,4.7207,4.7268,4.7292,4.7335,4.7404,4.7415,4.7482,4.7504,4.7539,4.7587,4.7584,4.763,4.7647,4.7696,4.7708,4.778,4.7792,4.7804,4.7806,4.7805,4.7804,4.7824,4.7819,4.7808,4.7807,4.7807,4.7806,0,4.7293,4.7311,4.7387,4.7429,4.7442,4.7491,4.7528,4.757,4.7588,4.7649,4.7664,4.7692,4.775,4.7769,4.7839,4.7847,4.7932,4.7928,4.7918,4.7919,4.7968,4.7964,4.8119,4.8141,4.8011,4.8012,4.8013,0,4.7355,4.7401,4.7449,4.7481,4.7506,4.7557,4.759,4.7604,4.7639,4.7691,4.7728,4.7785,4.7832,4.7925,4.7952,4.8006,4.8005,4.8056,4.8013,4.8011,4.8008,4.8006,4.8012,4.8064,4.8066,4.8067,4.8068,0,4.7464,4.7471,4.7519,4.7571,4.7611,4.7652,4.7692,4.7719,4.7739,4.7778,4.7838,4.7874,4.7946,4.8004,4.806,4.8085,4.8081,4.8081,4.8096,4.8095,4.8088,4.8095,4.7942,4.8078,4.8077,4.8076,4.8075,4.8075,4.7541,4.7583,4.7624,4.7678,4.7709,4.7748,4.779,4.7814,4.7863,4.7923,4.7928,4.7993,4.8035,4.811,4.8138,4.819,4.8175,4.8196,4.8201,4.8207,4.8212,4.8079,4.8199,4.8199,4.8199,4.8199,4.8199,0,4.7651,4.7678,4.7727,4.7784,4.7827,4.7819,4.7864,4.7901,4.7957,4.7997,4.8043,4.8113,4.817,4.8202,4.8259,4.8295,4.8295,4.831,4.8308,4.8315,4.822,4.8202,4.8309,4.8309,4.8309,4.8309,4.8309,4.8309,4.7714,4.7786,4.7798,4.7886,4.7913,4.7976,4.8002,4.8038,4.807,4.8148,4.8195,4.8216,4.8254,4.8314,4.8366,4.8375,4.8397,4.8414,4.8421,4.8332,4.8321,4.831,4.8294,4.8418,4.8418,4.8511,4.8512,4.8513]}]]